Asheville, NC

5:31 AM EDT on July 26, 2017 (GMT -0400)
Asheville Regional

Weather History for KAVL - October, 2011

Change the Weather History Date:

Friday, October 7, 2011

  Actual Average Record
Temperature  
Mean Temperature 59 °F 59 °F  
Max Temperature 73 °F 71 °F 85 °F (1951)
Min Temperature 44 °F 48 °F 27 °F (1935)
Degree Days  
Heating Degree Days 6 6  
Month to date heating degree days 72 39  
Since 1 July heating degree days 110 96  
Cooling Degree Days 0 1  
Month to date cooling degree days 0 7  
Year to date cooling degree days 1201 859  
Growing Degree Days 8 (Base 50)    
Moisture  
Dew Point 47 °F    
Average Humidity 66    
Maximum Humidity 100    
Minimum Humidity 31    
Precipitation  
Precipitation 0.00 in 0.09 in 1.71 in (1976)
Month to date precipitation T 0.72  
Year to date precipitation 33.22 36.14  
Snow  
Snow 0.00 in 0.00 in 0.00 in (2002)
Month to date snowfall 0.0 0.0  
Since 1 July snowfall 0.0 0.0  
Since 1 September snowfall 0.0 0.0  
Snow Depth 0.00 in    
Sea Level Pressure  
Sea Level Pressure 30.41 in    
Wind  
Wind Speed 2 mph (SSE)    
Max Wind Speed 12 mph    
Max Gust Speed 18 mph    
Visibility 4 miles    
Events Fog    
T = Trace of Precipitation, MM = Missing Value Source: NWS Daily Summary

Daily Weather History Graph

Daily Weather History Graph

Search for Another Location

Airport or City:

Trip Planner

Search our weather history database for the weather conditions in past years. The results will help you decide how hot, cold, wet, or windy it might be!

Date:

Astronomy

Oct. 07, 2011 Rise Set
Actual Time 7:29 AM EDT 7:05 PM EDT
Civil Twilight 7:04 AM EDT 7:31 PM EDT
Nautical Twilight 6:34 AM EDT 8:00 PM EDT
Astronomical Twilight 6:05 AM EDT 8:30 PM EDT
Moon 4:41 PM EDT (10/7) 3:25 AM EDT (10/7)
Length of Visible Light 12h 27m
Length of Day
11h 36m
Waxing Gibbous, 83% of the Moon is Illuminated
Oct 7
Waxing Gibbous
Oct 11
Full
Oct 19
Last Quarter
Oct 26
New
Nov 2
First Quarter

Hourly Weather History & Observations

Time (EDT) Temp. Dew Point Humidity Pressure Visibility Wind Dir Wind Speed Gust Speed Precip Events Conditions
12:54 AM 51.1 °F 50.0 °F 96% 30.36 in 8.0 mi Calm Calm - N/A   Clear
1:54 AM 50.0 °F 48.0 °F 93% 30.36 in 7.0 mi Calm Calm - N/A   Clear
2:54 AM 48.0 °F 46.9 °F 96% 30.36 in 6.0 mi Calm Calm - N/A   Clear
3:01 AM 48.2 °F 46.4 °F 93% 30.40 in 5.0 mi Calm Calm - N/A   Clear
3:05 AM 48.2 °F 46.4 °F 93% 30.40 in 1.8 mi Calm Calm - N/A   Clear
3:13 AM 48.2 °F 46.4 °F 93% 30.39 in 1.0 mi Calm Calm - N/A   Clear
3:22 AM 48.2 °F 46.4 °F 93% 30.39 in 2.0 mi Calm Calm - N/A   Clear
3:25 AM 48.2 °F 46.4 °F 93% 30.39 in 3.0 mi Calm Calm - N/A   Clear
3:54 AM 48.0 °F 46.9 °F 96% 30.36 in 6.0 mi Calm Calm - N/A   Clear
4:05 AM 46.4 °F 46.4 °F 100% 30.39 in 1.8 mi Calm Calm - N/A   Clear
4:12 AM 48.2 °F 46.4 °F 93% 30.39 in 1.5 mi Calm Calm - N/A   Scattered Clouds
4:21 AM 46.4 °F 46.4 °F 100% 30.39 in 1.2 mi Calm Calm - N/A   Mostly Cloudy
4:32 AM 46.4 °F 46.4 °F 100% 30.39 in 1.8 mi Calm Calm - N/A   Scattered Clouds
4:34 AM 46.4 °F 46.4 °F 100% 30.39 in 4.0 mi Calm Calm - N/A   Scattered Clouds
4:54 AM 46.9 °F 46.0 °F 97% 30.35 in 7.0 mi Calm Calm - N/A   Clear
5:21 AM 44.6 °F 44.6 °F 100% 30.40 in 2.5 mi Calm Calm - N/A   Clear
5:26 AM 44.6 °F 44.6 °F 100% 30.40 in 1.2 mi Calm Calm - N/A   Clear
5:33 AM 44.6 °F 44.6 °F 100% 30.40 in 1.2 mi Calm Calm - N/A   Partly Cloudy
5:37 AM 44.6 °F 44.6 °F 100% 30.40 in 1.0 mi Calm Calm - N/A   Mist
5:43 AM 44.6 °F 44.6 °F 100% 30.40 in 1.5 mi Calm Calm - N/A   Clear
5:47 AM 44.6 °F 44.6 °F 100% 30.40 in 3.0 mi Calm Calm - N/A   Clear
5:54 AM 46.0 °F 44.1 °F 93% 30.37 in 2.0 mi Calm Calm - N/A   Clear
6:10 AM 44.6 °F 44.6 °F 100% 30.41 in 7.0 mi Calm Calm - N/A   Clear
6:30 AM 44.6 °F 44.6 °F 100% 30.41 in 3.0 mi Calm Calm - N/A   Partly Cloudy
6:40 AM 44.6 °F 44.6 °F 100% 30.41 in 1.8 mi Calm Calm - N/A   Partly Cloudy
6:46 AM 44.6 °F 44.6 °F 100% 30.42 in 1.0 mi Calm Calm - N/A   Mist
6:54 AM 45.0 °F 44.1 °F 97% 30.39 in 1.2 mi Calm Calm - N/A   Mostly Cloudy
6:58 AM 46.4 °F 44.6 °F 93% 30.42 in 2.5 mi Calm Calm - N/A   Mostly Cloudy
7:05 AM 46.4 °F 44.6 °F 93% 30.42 in 6.0 mi Calm Calm - N/A   Mostly Cloudy
7:30 AM 44.6 °F 44.6 °F 100% 30.43 in 1.5 mi Calm Calm - N/A   Mostly Cloudy
7:34 AM 44.6 °F 44.6 °F 100% 30.43 in 0.8 mi Calm Calm - N/A   Mist
7:46 AM 44.6 °F 44.6 °F 100% 30.43 in 1.5 mi Calm Calm - N/A   Overcast
7:48 AM 46.4 °F 44.6 °F 93% 30.43 in 0.8 mi Calm Calm - N/A   Overcast
7:54 AM 46.0 °F 45.0 °F 96% 30.41 in 0.2 mi Calm Calm - N/A Fog Fog
8:03 AM 46.4 °F 46.4 °F 100% 30.43 in 0.2 mi Calm Calm - N/A Fog Fog
8:38 AM 46.4 °F 46.4 °F 100% 30.45 in 0.2 mi Calm Calm - N/A Fog Fog
8:54 AM 46.9 °F 46.9 °F 100% 30.43 in 0.8 mi Calm Calm - N/A   Overcast
8:58 AM 46.4 °F 46.4 °F 100% 30.45 in 1.5 mi Calm Calm - N/A   Mostly Cloudy
9:12 AM 48.2 °F 48.2 °F 100% 30.45 in 1.2 mi Calm Calm - N/A   Mostly Cloudy
9:21 AM 48.2 °F 48.2 °F 100% 30.45 in 0.5 mi Calm Calm - N/A Fog Fog
9:40 AM 50.0 °F 50.0 °F 100% 30.45 in 1.5 mi Calm Calm - N/A   Mostly Cloudy
9:44 AM 50.0 °F 50.0 °F 100% 30.46 in 3.0 mi Calm Calm - N/A   Mostly Cloudy
9:54 AM 51.1 °F 50.0 °F 96% 30.43 in 1.8 mi Calm Calm - N/A   Scattered Clouds
10:03 AM 51.8 °F 51.8 °F 100% 30.45 in 1.2 mi Calm Calm - N/A   Scattered Clouds
10:05 AM 51.8 °F 51.8 °F 100% 30.45 in 2.0 mi Calm Calm - N/A   Partly Cloudy
10:13 AM 53.6 °F 51.8 °F 94% 30.46 in 7.0 mi Calm Calm - N/A   Partly Cloudy
10:54 AM 60.1 °F 53.1 °F 78% 30.42 in 10.0 mi Calm Calm - N/A   Clear
11:54 AM 64.0 °F 51.1 °F 63% 30.42 in 10.0 mi Calm Calm - N/A   Clear
12:54 PM 68.0 °F 52.0 °F 56% 30.40 in 10.0 mi Calm Calm - N/A   Clear
1:54 PM 72.0 °F 46.0 °F 40% 30.37 in 10.0 mi SSE 8.1 mph 18.4 mph N/A   Clear
2:54 PM 73.0 °F 41.0 °F 31% 30.35 in 10.0 mi South 8.1 mph - N/A   Clear
3:54 PM 72.0 °F 46.9 °F 41% 30.35 in 10.0 mi SE 9.2 mph - N/A   Clear
4:54 PM 71.6 °F 48.2 °F 43% 30.40 in 10.0 mi South 8.1 mph - N/A   Clear
5:54 PM 70.0 °F 48.9 °F 47% 30.37 in 10.0 mi Variable 3.5 mph - N/A   Clear
6:54 PM 66.0 °F 50.0 °F 56% 30.38 in 10.0 mi SE 5.8 mph - N/A   Clear
7:54 PM 63.0 °F 50.0 °F 63% 30.40 in 10.0 mi Calm Calm - N/A   Clear
8:54 PM 55.9 °F 51.1 °F 84% 30.43 in 10.0 mi Calm Calm - N/A   Clear
9:54 PM 53.1 °F 50.0 °F 89% 30.44 in 10.0 mi Calm Calm - N/A   Clear
10:54 PM 52.0 °F 48.9 °F 89% 30.45 in 10.0 mi Calm Calm - N/A   Clear
11:54 PM 51.1 °F 48.9 °F 92% 30.44 in 10.0 mi Calm Calm - N/A   Clear